COSMOS 2216

导读

COSMOS 2216是独联体(CIS)于1992年10月20日发射的军用卫星,隶属于“宇宙”(COSMOS)卫星系列。该系列是苏联/俄罗斯重要的太空项目,涵盖军事侦察、技术试验等多种任务。作为冷战后独联体早期发射的空间资产,它延续了苏联航天探索脉络,承担特定轨道使命,是那个时代航天发展的见证者。

基本信息
目录编号:
22187
目录名称:
COSMOS 2216
国际标识:
1992-068F
轨道中心:
EARTH
卫星名称:
COSMOS 2216
卫星全名:
--
卫星状态:
在轨 (已飞行12379 天)
发射日期:
1992-10-20 UTC
国别 :
俄罗斯(独联体) (CIS)
星等 :
--
轨道信息
数据来源 国际轨道数据 AOE轨道数据
星历时间 2026-09-10T18:47:18+0800
16小时前
查看轨道信息
2026-09-07T00:00:00+0800
4天前
查看轨道信息
半长轴 7790.42km 7790.414km
偏心率 0.0004322 0.0004031
轨道倾角 82.593° 82.595°
近地点辐角 313.020° 324.443°
升交点赤经 289.533° 291.943°
平近点角 47.053° 129.972°
近地点 1408.915km 1409.136km
远地点 1415.651km 1415.418km
周期 114.052分钟 114.051分钟
每日圈数 12.625875 12.625889
详细信息
使用方式:
暂无
2D轨道图
3D轨道图
轨道高度分析图
轨道倾角分析图
轨道综合分析图
查看轨道综合分析图
交会数据列表
事件ID 空间交会对象 最接近时刻(TCA) 交会距离 交会风险概率(CRP) 交会风险指数(CRI) 操作
CDM_260911-022202-218702-705827
2026-09-11T
02:22:04+0000
1.534 km
极远距离
5.834542E-6 低风险 0.5
CDM_260911-204802-218703-804425
2026-09-11T
20:48:59+0000
2.949 km
极远距离
1.23087E-6 低风险 0.37
与全量物体交会距离演化趋势
与全量物体交会风险概率演化趋势